| time (UTC) | temp F | wind direction | speed MPH | gust MPH | rain 1hr in | rain 24hr in | rain mn in | humidity % | barometer mb |
| 20260503204958 | 54 | 252 | 4.0 | 11.0 | 0.00 | 0.00 | 0.00 | 42 | 1009.5 |
| 20260503204457 | 54 | 250 | 3.0 | 8.0 | 0.00 | 0.00 | 0.00 | 43 | 1009.4 |
| 20260503203957 | 54 | 254 | 3.0 | 19.0 | 0.00 | 0.00 | 0.00 | 45 | 1009.4 |
| 20260503203458 | 54 | 246 | 10.0 | 19.0 | 0.00 | 0.00 | 0.00 | 41 | 1009.3 |
| 20260503202958 | 55 | 270 | 0.0 | 7.0 | 0.00 | 0.00 | 0.00 | 43 | 1009.5 |
| 20260503202458 | 54 | 266 | 1.0 | 11.0 | 0.00 | 0.00 | 0.00 | 48 | 1009.5 |
| 20260503201958 | 53 | 297 | 4.0 | 9.0 | 0.00 | 0.00 | 0.00 | 45 | 1009.5 |
| 20260503201457 | 54 | 275 | 6.0 | 12.0 | 0.00 | 0.00 | 0.00 | 43 | 1009.4 |
| 20260503200458 | 55 | 269 | 2.0 | 9.0 | 0.00 | 0.00 | 0.00 | 45 | 1009.5 |
| 20260503195958 | 54 | 263 | 4.0 | 10.0 | 0.00 | 0.00 | 0.00 | 42 | 1009.4 |
| 20260503194958 | 55 | 279 | 3.0 | 10.0 | 0.00 | 0.00 | 0.00 | 44 | 1009.2 |
| 20260503194458 | 57 | 287 | 5.0 | 13.0 | 0.00 | 0.00 | 0.00 | 44 | 1009.3 |
| 20260503193958 | 56 | 252 | 4.0 | 13.0 | 0.00 | 0.00 | 0.00 | 46 | 1009.2 |
| 20260503193458 | 56 | 272 | 7.0 | 11.0 | 0.00 | 0.00 | 0.00 | 46 | 1009.3 |
| 20260503192958 | 56 | 231 | 3.0 | 10.0 | 0.00 | 0.00 | 0.00 | 45 | 1009.2 |
| 20260503192457 | 55 | 275 | 4.0 | 9.0 | 0.00 | 0.00 | 0.00 | 48 | 1009.3 |
| 20260503191458 | 55 | 261 | 7.0 | 12.0 | 0.00 | 0.00 | 0.00 | 45 | 1009.3 |
| 20260503191001 | 57 | 244 | 5.0 | 10.0 | 0.00 | 0.00 | 0.00 | 41 | 1009.2 |
| 20260503190459 | 57 | 284 | 2.0 | 11.0 | 0.00 | 0.00 | 0.00 | 47 | 1009.2 |
| 20260503190003 | 56 | 266 | 3.0 | 11.0 | 0.00 | 0.00 | 0.00 | 46 | 1009.2 |
| 20260503185458 | 56 | 290 | 5.0 | 12.0 | 0.00 | 0.00 | 0.00 | 44 | 1009.3 |
| 20260503185006 | 56 | 259 | 4.0 | 12.0 | 0.00 | 0.00 | 0.00 | 45 | 1009.2 |
| 20260503184458 | 55 | 254 | 8.0 | 9.0 | 0.00 | 0.00 | 0.00 | 47 | 1009.2 |
| 20260503183958 | 55 | 292 | 8.0 | 12.0 | 0.00 | 0.00 | 0.00 | 47 | 1009.2 |
| 20260503182957 | 54 | 304 | 4.0 | 9.0 | 0.00 | 0.00 | 0.00 | 42 | 1009.3 |
| 20260503182457 | 53 | 315 | 6.0 | 10.0 | 0.00 | 0.00 | 0.00 | 44 | 1009.4 |
| 20260503181457 | 54 | 108 | 1.0 | 10.0 | 0.00 | 0.00 | 0.00 | 45 | 1009.2 |
| 20260503180458 | 55 | 254 | 3.0 | 10.0 | 0.00 | 0.00 | 0.00 | 46 | 1009.3 |
| 20260503180000 | 54 | 236 | 2.0 | 9.0 | 0.00 | 0.00 | 0.00 | 48 | 1009.2 |
| 20260503175457 | 52 | 151 | 1.0 | 9.0 | 0.00 | 0.00 | 0.00 | 49 | 1009.2 |
| 20260503174458 | 52 | 294 | 3.0 | 11.0 | 0.00 | 0.00 | 0.00 | 47 | 1009.4 |
| 20260503173958 | 52 | 282 | 2.0 | 10.0 | 0.00 | 0.00 | 0.00 | 46 | 1009.4 |
| 20260503173458 | 51 | 240 | 4.0 | 10.0 | 0.00 | 0.00 | 0.00 | 45 | 1009.5 |
| 20260503172957 | 52 | 275 | 6.0 | 9.0 | 0.00 | 0.00 | 0.00 | 46 | 1009.5 |
| 20260503172457 | 54 | 312 | 5.0 | 9.0 | 0.00 | 0.00 | 0.00 | 49 | 1009.7 |
| 20260503171957 | 52 | 270 | 2.0 | 9.0 | 0.00 | 0.00 | 0.00 | 58 | 1009.7 |
| 20260503170958 | 50 | 227 | 1.0 | 9.0 | 0.00 | 0.00 | 0.00 | 55 | 1009.8 |
| 20260503170458 | 49 | 236 | 2.0 | 10.0 | 0.00 | 0.00 | 0.00 | 51 | 1009.9 |
| 20260503150957 | 51 | 282 | 3.0 | 11.0 | 0.00 | 0.00 | 0.00 | 56 | 1009.6 |
| 20260503150457 | 52 | 313 | 3.0 | 10.0 | 0.00 | 0.00 | 0.00 | 59 | 1009.6 |
| 20260503130957 | 47 | 245 | 7.0 | 9.0 | 0.00 | 0.00 | 0.00 | 66 | 1009.6 |
| 20260503130457 | 47 | 311 | 0.0 | 8.0 | 0.00 | 0.00 | 0.00 | 68 | 1009.6 |
| 20260503110457 | 39 | 315 | 4.0 | 8.0 | 0.00 | 0.05 | 0.00 | 74 | 1009.4 |
| 20260503090456 | 38 | 281 | 2.0 | 7.0 | 0.00 | 0.05 | 0.00 | 72 | 1009.2 |
| 20260503081456 | 39 | 355 | 1.0 | 9.0 | 0.00 | 0.05 | 0.00 | 68 | 1009.5 |
| 20260503080956 | 39 | 182 | 2.0 | 7.0 | 0.00 | 0.05 | 0.00 | 68 | 1009.5 |
| 20260503080456 | 40 | 94 | 3.0 | 7.0 | 0.00 | 0.05 | 0.00 | 68 | 1009.5 |
| 20260503072456 | 41 | 300 | 1.0 | 10.0 | 0.00 | 0.05 | 0.00 | 64 | 1009.5 |
| 20260503071956 | 41 | 259 | 3.0 | 10.0 | 0.00 | 0.05 | 0.00 | 63 | 1009.6 |
| 20260503071456 | 42 | 294 | 4.0 | 6.0 | 0.00 | 0.05 | 0.00 | 63 | 1009.5 |
| 20260503070957 | 42 | 292 | 2.0 | 7.0 | 0.00 | 0.05 | 0.00 | 63 | 1009.7 |
| 20260503054956 | 43 | 26 | 1.0 | 8.0 | 0.00 | 0.05 | 0.00 | 61 | 1010.5 |
| 20260503054456 | 43 | 13 | 1.0 | 8.0 | 0.00 | 0.05 | 0.00 | 61 | 1010.5 |
| 20260503053956 | 44 | 53 | 2.0 | 5.0 | 0.00 | 0.05 | 0.00 | 61 | 1010.5 |
| 20260503053456 | 44 | 57 | 1.0 | 5.0 | 0.00 | 0.05 | 0.00 | 61 | 1010.6 |
| 20260503052956 | 44 | 42 | 2.0 | 6.0 | 0.00 | 0.05 | 0.00 | 61 | 1010.6 |
| 20260503051955 | 44 | 34 | 1.0 | 5.0 | 0.00 | 0.05 | 0.00 | 60 | 1010.8 |
| 20260503050957 | 44 | 59 | 1.0 | 6.0 | 0.00 | 0.05 | 0.00 | 60 | 1010.7 |
| 20260503045458 | 45 | 360 | 2.0 | 7.0 | 0.00 | 0.05 | 0.00 | 58 | 1010.9 |
| 20260503044958 | 45 | 64 | 1.0 | 9.0 | 0.00 | 0.05 | 0.00 | 58 | 1011.0 |
| 20260503044458 | 45 | 63 | 3.0 | 9.0 | 0.00 | 0.05 | 0.00 | 57 | 1011.1 |
| 20260503043958 | 45 | 49 | 6.0 | 9.0 | 0.00 | 0.05 | 0.00 | 57 | 1011.1 |
| 20260503043458 | 45 | 13 | 3.0 | 9.0 | 0.00 | 0.05 | 0.00 | 57 | 1011.1 |
| 20260503042458 | 45 | 46 | 4.0 | 6.0 | 0.00 | 0.05 | 0.00 | 58 | 1011.2 |
| 20260503042001 | 45 | 105 | 7.0 | 8.0 | 0.00 | 0.05 | 0.00 | 57 | 1011.1 |
| 20260503041458 | 45 | 74 | 1.0 | 9.0 | 0.00 | 0.05 | 0.00 | 57 | 1011.1 |
| 20260503040958 | 45 | 53 | 4.0 | 9.0 | 0.00 | 0.05 | 0.00 | 57 | 1011.1 |
| 20260503040458 | 45 | 19 | 4.0 | 7.0 | 0.00 | 0.05 | 0.00 | 57 | 1011.1 |
| 20260503035958 | 45 | 32 | 5.0 | 7.0 | 0.00 | 0.05 | 0.05 | 57 | 1011.2 |
| 20260503035459 | 46 | 67 | 3.0 | 7.0 | 0.00 | 0.05 | 0.05 | 57 | 1011.1 |
| 20260503034958 | 46 | 81 | 2.0 | 9.0 | 0.00 | 0.05 | 0.05 | 58 | 1011.1 |
| 20260503034458 | 46 | 42 | 3.0 | 9.0 | 0.00 | 0.05 | 0.05 | 57 | 1011.1 |
| 20260503033958 | 46 | 42 | 1.0 | 9.0 | 0.00 | 0.05 | 0.05 | 57 | 1011.1 |
| 20260503032458 | 46 | 11 | 4.0 | 9.0 | 0.00 | 0.05 | 0.05 | 56 | 1011.0 |
| 20260503031958 | 46 | 18 | 3.0 | 9.0 | 0.00 | 0.05 | 0.05 | 56 | 1011.1 |
| 20260503030958 | 46 | 298 | 1.0 | 10.0 | 0.00 | 0.05 | 0.05 | 56 | 1011.0 |
| 20260503030457 | 47 | 52 | 2.0 | 8.0 | 0.00 | 0.05 | 0.05 | 56 | 1011.2 |
| 20260503025957 | 47 | 67 | 3.0 | 8.0 | 0.00 | 0.05 | 0.05 | 55 | 1011.1 |
| 20260503025458 | 47 | 55 | 6.0 | 9.0 | 0.00 | 0.05 | 0.05 | 55 | 1011.1 |
| 20260503023958 | 47 | 98 | 8.0 | 8.0 | 0.00 | 0.05 | 0.05 | 55 | 1011.1 |
| 20260503023459 | 47 | 49 | 2.0 | 9.0 | 0.00 | 0.05 | 0.05 | 55 | 1011.3 |
| 20260503022458 | 47 | 76 | 3.0 | 9.0 | 0.00 | 0.05 | 0.05 | 55 | 1011.4 |
| 20260503021958 | 47 | 55 | 7.0 | 9.0 | 0.00 | 0.05 | 0.05 | 55 | 1011.3 |
| 20260503021459 | 47 | 69 | 1.0 | 10.0 | 0.00 | 0.05 | 0.05 | 55 | 1011.4 |
| 20260503020959 | 47 | 22 | 4.0 | 10.0 | 0.00 | 0.05 | 0.05 | 55 | 1011.4 |
| 20260503020001 | 47 | 45 | 1.0 | 4.0 | 0.00 | 0.05 | 0.05 | 56 | 1011.6 |
| 20260503015459 | 47 | 70 | 2.0 | 5.0 | 0.00 | 0.05 | 0.05 | 56 | 1011.4 |
| 20260503014959 | 47 | 36 | 1.0 | 5.0 | 0.00 | 0.05 | 0.05 | 57 | 1011.3 |
| 20260503014500 | 47 | 136 | 1.0 | 4.0 | 0.00 | 0.05 | 0.05 | 56 | 1011.4 |
| 20260503013959 | 48 | 140 | 2.0 | 6.0 | 0.00 | 0.05 | 0.05 | 57 | 1011.3 |
| 20260503013503 | 48 | 85 | 1.0 | 5.0 | 0.00 | 0.05 | 0.05 | 56 | 1011.3 |
| 20260503013000 | 48 | 88 | 1.0 | 11.0 | 0.00 | 0.05 | 0.05 | 57 | 1011.2 |
| 20260503012459 | 48 | 26 | 0.0 | 4.0 | 0.00 | 0.05 | 0.05 | 58 | 1011.2 |
| 20260503011959 | 48 | 304 | 1.0 | 5.0 | 0.00 | 0.05 | 0.05 | 58 | 1011.2 |
| 20260503011459 | 48 | 360 | 1.0 | 5.0 | 0.00 | 0.05 | 0.05 | 58 | 1011.3 |
| 20260503010458 | 48 | 320 | 0.0 | 6.0 | 0.00 | 0.05 | 0.05 | 60 | 1011.2 |
| 20260503005958 | 48 | 39 | 2.0 | 6.0 | 0.00 | 0.05 | 0.05 | 59 | 1011.1 |
| 20260503005459 | 48 | 104 | 4.0 | 5.0 | 0.00 | 0.05 | 0.05 | 61 | 1011.1 |
| 20260503004958 | 48 | 15 | 1.0 | 5.0 | 0.00 | 0.05 | 0.05 | 61 | 1011.0 |
| 20260503004458 | 48 | 53 | 1.0 | 5.0 | 0.00 | 0.05 | 0.05 | 63 | 1010.9 |
| 20260503003959 | 48 | 296 | 0.0 | 1.0 | 0.00 | 0.05 | 0.05 | 62 | 1010.9 |
| 20260503003458 | 48 | 295 | 0.0 | 0.0 | 0.00 | 0.05 | 0.05 | 62 | 1010.8 |
| 20260503002958 | 49 | 295 | 0.0 | 2.0 | 0.00 | 0.05 | 0.05 | 61 | 1010.7 |
| 20260503001458 | 50 | 287 | 0.0 | 3.0 | 0.00 | 0.05 | 0.05 | 61 | 1010.5 |
| 20260503000958 | 50 | 57 | 0.0 | 3.0 | 0.00 | 0.05 | 0.05 | 60 | 1010.5 |
| 20260503000458 | 50 | 57 | 0.0 | 3.0 | 0.00 | 0.05 | 0.05 | 59 | 1010.5 |
| 20260503000000 | 51 | 290 | 1.0 | 3.0 | 0.00 | 0.05 | 0.05 | 59 | 1010.5 |
| 20260502235457 | 51 | 250 | 0.0 | 3.0 | 0.00 | 0.05 | 0.05 | 59 | 1010.4 |
| 20260502233958 | 52 | 85 | 0.0 | 6.0 | 0.00 | 0.05 | 0.05 | 59 | 1010.3 |
| 20260502233458 | 52 | 294 | 0.0 | 6.0 | 0.00 | 0.05 | 0.05 | 57 | 1010.3 |
| 20260502232958 | 53 | 58 | 1.0 | 4.0 | 0.00 | 0.05 | 0.05 | 60 | 1010.2 |
| 20260502232458 | 53 | 11 | 1.0 | 4.0 | 0.00 | 0.05 | 0.05 | 59 | 1010.2 |
| 20260502231957 | 53 | 313 | 0.0 | 5.0 | 0.00 | 0.05 | 0.05 | 59 | 1010.2 |
| 20260502231458 | 53 | 100 | 1.0 | 8.0 | 0.00 | 0.05 | 0.05 | 60 | 1010.3 |
| 20260502230959 | 53 | 90 | 1.0 | 4.0 | 0.00 | 0.05 | 0.05 | 60 | 1010.3 |
| 20260502230001 | 53 | 136 | 1.0 | 6.0 | 0.00 | 0.05 | 0.05 | 61 | 1010.2 |
| 20260502225459 | 54 | 67 | 2.0 | 6.0 | 0.00 | 0.05 | 0.05 | 60 | 1010.2 |
| 20260502225000 | 53 | 274 | 1.0 | 4.0 | 0.00 | 0.05 | 0.05 | 61 | 1010.2 |
| 20260502224459 | 54 | 284 | 1.0 | 4.0 | 0.00 | 0.05 | 0.05 | 62 | 1010.2 |
| 20260502223459 | 55 | 274 | 2.0 | 7.0 | 0.00 | 0.05 | 0.05 | 59 | 1010.1 |
| 20260502222958 | 55 | 271 | 3.0 | 7.0 | 0.00 | 0.05 | 0.05 | 60 | 1010.0 |
| 20260502222459 | 56 | 254 | 2.0 | 6.0 | 0.00 | 0.05 | 0.05 | 57 | 1010.0 |
| 20260502221459 | 56 | 234 | 1.0 | 4.0 | 0.00 | 0.05 | 0.05 | 56 | 1009.9 |
| 20260502221000 | 56 | 251 | 1.0 | 4.0 | 0.00 | 0.05 | 0.05 | 57 | 1009.8 |
| 20260502215958 | 55 | 250 | 4.0 | 8.0 | 0.00 | 0.05 | 0.05 | 57 | 1009.8 |
| 20260502215501 | 56 | 248 | 4.0 | 8.0 | 0.00 | 0.05 | 0.05 | 56 | 1009.8 |
| 20260502215000 | 56 | 255 | 1.0 | 3.0 | 0.00 | 0.05 | 0.05 | 57 | 1009.8 |
| 20260502214459 | 56 | 243 | 0.0 | 7.0 | 0.00 | 0.05 | 0.05 | 59 | 1009.9 |
| 20260502213957 | 56 | 246 | 2.0 | 7.0 | 0.00 | 0.05 | 0.05 | 55 | 1010.0 |
| 20260502213500 | 56 | 240 | 3.0 | 5.0 | 0.00 | 0.05 | 0.05 | 58 | 1009.9 |
| 20260502212958 | 56 | 248 | 3.0 | 5.0 | 0.00 | 0.05 | 0.05 | 57 | 1009.9 |
| 20260502212458 | 55 | 228 | 3.0 | 3.0 | 0.00 | 0.05 | 0.05 | 58 | 1010.0 |
| 20260502211958 | 55 | 76 | 0.0 | 4.0 | 0.00 | 0.05 | 0.05 | 58 | 1010.0 |
| 20260502210957 | 55 | 261 | 3.0 | 4.0 | 0.00 | 0.05 | 0.05 | 60 | 1010.0 |
| 20260502210458 | 55 | 281 | 1.0 | 2.0 | 0.00 | 0.05 | 0.05 | 62 | 1010.0 |
| 20260502205958 | 55 | 286 | 0.0 | 5.0 | 0.00 | 0.05 | 0.05 | 60 | 1010.0 |
| 20260502205458 | 55 | 304 | 4.0 | 6.0 | 0.00 | 0.05 | 0.05 | 59 | 1010.0 |